,,Stat5,,Stat1,,Stat2,,Stat3,,Stat4,,Wind1,,Wind1,
time,status,PA1M_AVG,status,PR1M_SUM,status,RH1M_AVG,status,SR1M_AVG,status,TA1M_AVG,status,W1dAve1m,status,W1sAve1m,
2001-07-28, 00:00:01,VALID,918.129,VALID,0,VALID,96.1511,VALID,0,VALID,19.8915,VALID,23,VALID,0,
2001-07-28, 00:01:01,VALID,918.131,VALID,0,VALID,96.1308,VALID,-0.0169808,VALID,19.8754,VALID,23,VALID,0,
2001-07-28, 00:02:00,VALID,918.128,VALID,0,VALID,96.216,VALID,0,VALID,19.8625,VALID,23,VALID,0,
2001-07-28, 00:03:00,VALID,918.126,VALID,0,VALID,96.3266,VALID,0.0169808,VALID,19.8463,VALID,23,VALID,0,
2001-07-28, 00:04:00,VALID,918.118,VALID,0,VALID,96.7449,VALID,0,VALID,19.8657,VALID,23,VALID,0,
2001-07-28, 00:05:01,VALID,918.108,VALID,0,VALID,96.8581,VALID,0,VALID,19.8846,VALID,107,VALID,0,
2001-07-28, 00:06:00,VALID,918.106,VALID,0,VALID,96.8746,VALID,0,VALID,19.8851,VALID,163,VALID,0,
2001-07-28, 00:07:00,VALID,918.106,VALID,0,VALID,96.8568,VALID,-0.0169808,VALID,19.8625,VALID,189,VALID,0,
2001-07-28, 00:08:01,VALID,918.102,VALID,0,VALID,96.7538,VALID,0,VALID,19.8632,VALID,192,VALID,0,
2001-07-28, 00:09:00,VALID,918.088,VALID,0,VALID,96.6394,VALID,0,VALID,19.8267,VALID,192,VALID,0,
2001-07-28, 00:10:00,VALID,918.084,VALID,0,VALID,96.7691,VALID,-0.0169808,VALID,19.8312,VALID,192,VALID,0,
2001-07-28, 00:11:00,VALID,918.071,VALID,0,VALID,97.0921,VALID,-0.0169808,VALID,19.892,VALID,192,VALID,0,
2001-07-28, 00:12:00,VALID,918.053,VALID,0,VALID,97.3846,VALID,0,VALID,19.9591,VALID,192,VALID,0,
2001-07-28, 00:13:01,VALID,918.022,VALID,0,VALID,97.3515,VALID,-0.0679233,VALID,19.9927,VALID,192,VALID,0,
2001-07-28, 00:14:00,VALID,917.999,VALID,0,VALID,97.368,VALID,-0.118866,VALID,19.9997,VALID,192,VALID,0,
2001-07-28, 00:15:01,VALID,917.964,VALID,0,VALID,97.2587,VALID,-0.101885,VALID,20.0126,VALID,170,VALID,0,
2001-07-28, 00:16:00,VALID,917.943,VALID,0,VALID,97.2472,VALID,-0.101885,VALID,20.0295,VALID,166,VALID,0,
2001-07-28, 00:17:00,VALID,917.929,VALID,0,VALID,97.0896,VALID,-0.101885,VALID,20.0056,VALID,20,VALID,0,
2001-07-28, 00:18:00,VALID,917.919,VALID,0,VALID,96.5389,VALID,-0.101885,VALID,19.9485,VALID,14,VALID,0,
2001-07-28, 00:19:00,VALID,917.918,VALID,0,VALID,96.3889,VALID,-0.135847,VALID,19.9027,VALID,14,VALID,0,
2001-07-28, 00:20:01,VALID,917.916,VALID,0,VALID,96.6674,VALID,-0.101885,VALID,19.9089,VALID,14,VALID,0,
2001-07-28, 00:21:00,VALID,917.933,VALID,0,VALID,97.0921,VALID,-0.0849042,VALID,19.9673,VALID,336,VALID,0,
2001-07-28, 00:22:00,VALID,917.935,VALID,0,VALID,97.2676,VALID,-0.101885,VALID,20.0034,VALID,235,VALID,0,
2001-07-28, 00:23:01,VALID,917.951,VALID,0,VALID,97.3413,VALID,-0.101885,VALID,20.0026,VALID,230,VALID,0,
2001-07-28, 00:24:00,VALID,917.948,VALID,0,VALID,97.3718,VALID,-0.101885,VALID,20.026,VALID,212,VALID,0,
2001-07-28, 00:25:00,VALID,917.935,VALID,0,VALID,97.3464,VALID,-0.118866,VALID,20.0258,VALID,203,VALID,0,
2001-07-28, 00:26:00,VALID,917.927,VALID,0,VALID,97.2167,VALID,-0.152827,VALID,19.9997,VALID,189,VALID,0,
2001-07-28, 00:27:00,VALID,917.918,VALID,0,VALID,97.1887,VALID,-0.118866,VALID,19.9832,VALID,207,VALID,0,
2001-07-28, 00:28:01,VALID,917.918,VALID,0,VALID,96.9611,VALID,-0.0169808,VALID,19.9502,VALID,213,VALID,0,
2001-07-28, 00:29:00,VALID,917.909,VALID,0,VALID,96.6648,VALID,0.101885,VALID,19.9035,VALID,247,VALID,0,
2001-07-28, 00:30:01,VALID,917.899,VALID,0,VALID,96.4525,VALID,0.0679233,VALID,19.8645,VALID,358,VALID,0,
2001-07-28, 00:31:00,VALID,917.902,VALID,0,VALID,96.558,VALID,0.0849042,VALID,19.8513,VALID,7,VALID,0,
2001-07-28, 00:32:00,VALID,917.901,VALID,0,VALID,96.9064,VALID,0.101885,VALID,19.8709,VALID,8,VALID,0,
2001-07-28, 00:33:00,VALID,917.896,VALID,0,VALID,96.9611,VALID,0.0679233,VALID,19.8575,VALID,20,VALID,0.311266,
2001-07-28, 00:34:00,VALID,917.897,VALID,0,VALID,96.6063,VALID,0.101885,VALID,19.7964,VALID,26,VALID,0.780828,
2001-07-28, 00:35:01,VALID,917.879,VALID,0,VALID,96.9916,VALID,0.118866,VALID,19.7931,VALID,30,VALID,0.928454,
2001-07-28, 00:36:00,VALID,917.862,VALID,0,VALID,97.0514,VALID,0.101885,VALID,19.7902,VALID,19,VALID,0.624367,
2001-07-28, 00:37:00,VALID,917.857,VALID,0,VALID,97.1391,VALID,0.135847,VALID,19.7705,VALID,7,VALID,0.464063,
2001-07-28, 00:38:01,VALID,917.858,VALID,0,VALID,97.4392,VALID,0.118866,VALID,19.816,VALID,347,VALID,0.454327,
2001-07-28, 00:39:00,VALID,917.851,VALID,0,VALID,97.4609,VALID,0.118866,VALID,19.8386,VALID,326,VALID,0.387547,
2001-07-28, 00:40:00,VALID,917.852,VALID,0,VALID,97.3896,VALID,0.101885,VALID,19.851,VALID,327,VALID,0.227232,
2001-07-28, 00:41:00,VALID,917.837,VALID,0,VALID,97.2078,VALID,0.101885,VALID,19.8548,VALID,331,VALID,0.495355,
2001-07-28, 00:42:00,VALID,917.816,VALID,0,VALID,96.9217,VALID,0.101885,VALID,19.8612,VALID,343,VALID,0.816301,
2001-07-28, 00:43:01,VALID,917.795,VALID,0,VALID,96.4372,VALID,0.0509425,VALID,19.8262,VALID,354,VALID,0.808799,
2001-07-28, 00:44:00,VALID,917.772,VALID,0,VALID,96.7348,VALID,0,VALID,19.8426,VALID,3,VALID,0.852865,
2001-07-28, 00:45:01,VALID,917.747,VALID,0,VALID,96.7259,VALID,0.0169808,VALID,19.8364,VALID,4,VALID,1.15707,
2001-07-28, 00:46:00,VALID,917.731,VALID,0,VALID,96.5097,VALID,0,VALID,19.8175,VALID,15,VALID,1.18877,
2001-07-28, 00:47:00,VALID,917.712,VALID,0,VALID,96.483,VALID,0,VALID,19.7718,VALID,16,VALID,1.20129,
2001-07-28, 00:48:00,VALID,917.699,VALID,0,VALID,96.6051,VALID,0.0169808,VALID,19.7589,VALID,15,VALID,0.955181,
2001-07-28, 00:49:00,VALID,917.688,VALID,0,VALID,96.4067,VALID,-0.0169808,VALID,19.704,VALID,14,VALID,0.939823,
2001-07-28, 00:50:01,VALID,917.687,VALID,0,VALID,96.8212,VALID,0,VALID,19.7176,VALID,7,VALID,0.866571,
2001-07-28, 00:51:00,VALID,917.675,VALID,0,VALID,96.9319,VALID,0,VALID,19.7136,VALID,11,VALID,0.740076,
2001-07-28, 00:52:00,VALID,917.684,VALID,0,VALID,97.0272,VALID,0,VALID,19.7015,VALID,15,VALID,0.86875,
2001-07-28, 00:53:01,VALID,917.661,VALID,0,VALID,97.1366,VALID,0,VALID,19.6883,VALID,17,VALID,1.08714,
2001-07-28, 00:54:00,VALID,917.662,VALID,0,VALID,97.1328,VALID,0,VALID,19.6721,VALID,26,VALID,0.957623,
2001-07-28, 00:55:00,VALID,917.637,VALID,0,VALID,96.9535,VALID,-0.0169808,VALID,19.6461,VALID,16,VALID,0.801339,
2001-07-28, 00:56:00,VALID,917.637,VALID,0,VALID,96.6776,VALID,0.0169808,VALID,19.5912,VALID,11,VALID,1.09291,
2001-07-28, 00:57:00,VALID,917.635,VALID,0,VALID,96.6674,VALID,0,VALID,19.5556,VALID,14,VALID,0.762035,
2001-07-28, 00:58:01,VALID,917.635,VALID,0,VALID,96.7017,VALID,-0.0169808,VALID,19.5333,VALID,9,VALID,0.365132,
2001-07-28, 00:59:00,VALID,917.651,VALID,0,VALID,96.6928,VALID,0,VALID,19.5166,VALID,11,VALID,0.472656,
2001-07-28, 01:00:01,VALID,917.663,VALID,0,VALID,97.0552,VALID,0,VALID,19.5397,VALID,13,VALID,0.939145,
2001-07-28, 01:01:00,VALID,917.665,VALID,0,VALID,97.0082,VALID,0.0169808,VALID,19.5497,VALID,360,VALID,0.622255,
2001-07-28, 01:02:00,VALID,917.67,VALID,0,VALID,97.0336,VALID,0.0169808,VALID,19.5497,VALID,360,VALID,0.37546,
2001-07-28, 01:03:00,VALID,917.672,VALID,0,VALID,97.0565,VALID,0,VALID,19.5492,VALID,356,VALID,0.505962,
2001-07-28, 01:04:00,VALID,917.673,VALID,0,VALID,97.1366,VALID,0,VALID,19.5621,VALID,12,VALID,0.772171,
2001-07-28, 01:05:01,VALID,917.668,VALID,0,VALID,97.0183,VALID,-0.0169808,VALID,19.5529,VALID,9,VALID,0.643914,
2001-07-28, 01:06:00,VALID,917.671,VALID,0,VALID,97.0845,VALID,0,VALID,19.5425,VALID,357,VALID,0.684544,
2001-07-28, 01:07:00,VALID,917.671,VALID,0,VALID,97.148,VALID,0,VALID,19.5494,VALID,357,VALID,0.816741,
2001-07-28, 01:08:01,VALID,917.662,VALID,0,VALID,97.2396,VALID,0,VALID,19.5432,VALID,357,VALID,0.759014,
2001-07-28, 01:09:00,VALID,917.629,VALID,0,VALID,97.3693,VALID,-0.0339617,VALID,19.5626,VALID,8,VALID,0.632813,
2001-07-28, 01:10:01,VALID,917.607,VALID,0,VALID,97.3973,VALID,-0.0169808,VALID,19.5626,VALID,5,VALID,0.842857,
2001-07-28, 01:11:00,VALID,917.583,VALID,0,VALID,97.3286,VALID,-0.0169808,VALID,19.5601,VALID,10,VALID,0.512247,
2001-07-28, 01:12:00,VALID,917.554,VALID,0,VALID,97.1798,VALID,-0.0339617,VALID,19.534,VALID,13,VALID,0.35473,
2001-07-28, 01:13:01,VALID,917.546,VALID,0,VALID,97.0247,VALID,-0.0169808,VALID,19.4821,VALID,16,VALID,0.428454,
2001-07-28, 01:14:01,VALID,917.547,VALID,0,VALID,97.0438,VALID,0,VALID,19.4528,VALID,8,VALID,0.257378,
2001-07-28, 01:15:01,VALID,917.563,VALID,0,VALID,97.2053,VALID,-0.0169808,VALID,19.453,VALID,353,VALID,0,
2001-07-28, 01:16:01,VALID,917.574,VALID,0,VALID,97.3159,VALID,-0.0169808,VALID,19.4331,VALID,351,VALID,0.0082348,
2001-07-28, 01:17:00,VALID,917.572,VALID,0,VALID,97.4062,VALID,-0.0169808,VALID,19.4433,VALID,347,VALID,0.336167,
2001-07-28, 01:18:01,VALID,917.592,VALID,0,VALID,97.2371,VALID,0,VALID,19.411,VALID,349,VALID,0,
2001-07-28, 01:19:00,VALID,917.594,VALID,0,VALID,96.8607,VALID,0,VALID,19.3434,VALID,352,VALID,0,
2001-07-28, 01:20:01,VALID,917.578,VALID,0,VALID,96.7984,VALID,-0.0169808,VALID,19.2781,VALID,351,VALID,0,
2001-07-28, 01:21:00,VALID,917.587,VALID,0,VALID,97.0552,VALID,0,VALID,19.2788,VALID,341,VALID,0.332137,
2001-07-28, 01:22:01,VALID,917.598,VALID,0,VALID,97.4227,VALID,-0.0169808,VALID,19.3014,VALID,325,VALID,0.15625,
2001-07-28, 01:23:01,VALID,917.596,VALID,0,VALID,97.4647,VALID,-0.0509425,VALID,19.3241,VALID,314,VALID,0,
2001-07-28, 01:24:01,VALID,917.587,VALID,0,VALID,97.6109,VALID,0,VALID,19.34,VALID,300,VALID,0,
2001-07-28, 01:25:01,VALID,917.581,VALID,0,VALID,97.5562,VALID,-0.0509425,VALID,19.3273,VALID,300,VALID,0,
2001-07-28, 01:26:00,VALID,917.574,VALID,0,VALID,97.5766,VALID,-0.0339617,VALID,19.3111,VALID,300,VALID,0.0274493,
2001-07-28, 01:27:00,VALID,917.562,VALID,0,VALID,97.3032,VALID,-0.0169808,VALID,19.25,VALID,355,VALID,0.0154139,
2001-07-28, 01:28:01,VALID,917.548,VALID,0,VALID,97.1582,VALID,0,VALID,19.1787,VALID,10,VALID,0.0174753,
2001-07-28, 01:29:01,VALID,917.53,VALID,0,VALID,97.2282,VALID,0,VALID,19.1337,VALID,354,VALID,0.338325,
2001-07-28, 01:30:01,VALID,917.513,VALID,0,VALID,97.4532,VALID,0.0169808,VALID,19.13,VALID,351,VALID,0.441817,
2001-07-28, 01:31:01,VALID,917.504,VALID,0,VALID,97.349,VALID,0.0169808,VALID,19.0977,VALID,356,VALID,0.305321,
2001-07-28, 01:32:01,VALID,917.497,VALID,0,VALID,97.1773,VALID,-0.0169808,VALID,19.0724,VALID,358,VALID,0.097886,
2001-07-28, 01:33:01,VALID,917.492,VALID,0,VALID,97.5359,VALID,0,VALID,19.095,VALID,5,VALID,0.501645,
2001-07-28, 01:34:01,VALID,917.475,VALID,0,VALID,97.7139,VALID,0,VALID,19.1278,VALID,12,VALID,0.422297,
2001-07-28, 01:35:01,VALID,917.479,VALID,0,VALID,97.7546,VALID,0,VALID,19.1372,VALID,8,VALID,0.754934,
2001-07-28, 01:36:01,VALID,917.475,VALID,0,VALID,97.7177,VALID,0,VALID,19.1305,VALID,358,VALID,0.779772,
2001-07-28, 01:37:01,VALID,917.478,VALID,0,VALID,97.5956,VALID,0.0169808,VALID,19.1104,VALID,6,VALID,0.73683,
2001-07-28, 01:38:01,VALID,917.479,VALID,0,VALID,97.5791,VALID,0,VALID,19.1181,VALID,1,VALID,0.866787,
2001-07-28, 01:39:01,VALID,917.474,VALID,0,VALID,97.56,VALID,-0.0339617,VALID,19.1308,VALID,357,VALID,0.626894,
2001-07-28, 01:40:01,VALID,917.462,VALID,0,VALID,97.6821,VALID,0,VALID,19.1529,VALID,1,VALID,0.305357,
2001-07-28, 01:41:01,VALID,917.452,VALID,0,VALID,97.7063,VALID,0.0169808,VALID,19.1822,VALID,356,VALID,0.165963,
2001-07-28, 01:42:01,VALID,917.443,VALID,0,VALID,97.5867,VALID,-0.0169808,VALID,19.1827,VALID,3,VALID,0,
2001-07-28, 01:43:01,VALID,917.446,VALID,0,VALID,97.6185,VALID,0,VALID,19.1852,VALID,357,VALID,0,
2001-07-28, 01:44:01,VALID,917.442,VALID,0,VALID,97.5893,VALID,0.0169808,VALID,19.1986,VALID,360,VALID,0,
2001-07-28, 01:45:01,VALID,917.447,VALID,0,VALID,97.5308,VALID,0,VALID,19.1891,VALID,358,VALID,0,
2001-07-28, 01:46:00,VALID,917.442,VALID,0,VALID,97.5867,VALID,0,VALID,19.1983,VALID,348,VALID,0,
2001-07-28, 01:47:00,VALID,917.444,VALID,0,VALID,97.3439,VALID,-0.0169808,VALID,19.1566,VALID,348,VALID,0,
2001-07-28, 01:48:00,VALID,917.441,VALID,0,VALID,96.8823,VALID,-0.0169808,VALID,19.0659,VALID,1,VALID,0,
2001-07-28, 01:49:00,VALID,917.447,VALID,0,VALID,97.2625,VALID,0,VALID,19.0758,VALID,360,VALID,0,
2001-07-28, 01:50:00,VALID,917.443,VALID,0,VALID,97.4672,VALID,0,VALID,19.0982,VALID,360,VALID,0,
2001-07-28, 01:51:00,VALID,917.444,VALID,0,VALID,97.3006,VALID,0,VALID,19.0662,VALID,352,VALID,0,
2001-07-28, 01:52:00,VALID,917.455,VALID,0,VALID,97.5817,VALID,-0.0169808,VALID,19.1022,VALID,333,VALID,0,
2001-07-28, 01:53:00,VALID,917.457,VALID,0,VALID,97.6758,VALID,0,VALID,19.1146,VALID,338,VALID,0,
2001-07-28, 01:54:00,VALID,917.446,VALID,0,VALID,97.6363,VALID,0,VALID,19.1049,VALID,341,VALID,0,
2001-07-28, 01:55:00,VALID,917.439,VALID,0,VALID,97.6643,VALID,-0.0169808,VALID,19.1208,VALID,335,VALID,0,
2001-07-28, 01:56:00,VALID,917.413,VALID,0,VALID,97.5728,VALID,0,VALID,19.1019,VALID,333,VALID,0,
2001-07-28, 01:57:00,VALID,917.393,VALID,0,VALID,97.616,VALID,0,VALID,19.1176,VALID,317,VALID,0,
2001-07-28, 01:58:00,VALID,917.368,VALID,0,VALID,97.5194,VALID,0.0169808,VALID,19.1372,VALID,325,VALID,0.574424,
2001-07-28, 01:59:00,VALID,917.352,VALID,0,VALID,97.3121,VALID,0,VALID,19.1529,VALID,318,VALID,0.620226,
2001-07-28, 02:00:00,VALID,917.344,VALID,0,VALID,97.204,VALID,0,VALID,19.1921,VALID,334,VALID,0.236842,
2001-07-28, 02:01:00,VALID,917.321,VALID,0,VALID,96.9573,VALID,0,VALID,19.1827,VALID,9,VALID,0.378801,
2001-07-28, 02:02:00,VALID,917.292,VALID,0,VALID,96.7093,VALID,0,VALID,19.1534,VALID,351,VALID,0,
2001-07-28, 02:03:00,VALID,917.294,VALID,0,VALID,96.441,VALID,0,VALID,19.0985,VALID,3,VALID,0,
2001-07-28, 02:04:00,VALID,917.293,VALID,0,VALID,96.4868,VALID,-0.0169808,VALID,19.0664,VALID,347,VALID,0,
2001-07-28, 02:05:00,VALID,917.285,VALID,0,VALID,96.4932,VALID,0,VALID,19.0371,VALID,19,VALID,0,
2001-07-28, 02:06:00,VALID,917.285,VALID,0,VALID,96.4181,VALID,0,VALID,19.0207,VALID,24,VALID,0,
2001-07-28, 02:07:00,VALID,917.279,VALID,0,VALID,96.2376,VALID,-0.0169808,VALID,18.9958,VALID,26,VALID,0,
2001-07-28, 02:08:00,VALID,917.266,VALID,0,VALID,96.2109,VALID,0,VALID,18.9695,VALID,29,VALID,0,
2001-07-28, 02:09:00,VALID,917.248,VALID,0,VALID,96.2732,VALID,0,VALID,18.9566,VALID,34,VALID,0,
2001-07-28, 02:10:00,VALID,917.234,VALID,0,VALID,96.305,VALID,0,VALID,18.9601,VALID,41,VALID,0,
2001-07-28, 02:11:00,VALID,917.212,VALID,0,VALID,96.2083,VALID,0,VALID,18.9271,VALID,43,VALID,0,
2001-07-28, 02:12:00,VALID,917.191,VALID,0,VALID,96.0125,VALID,0,VALID,18.9119,VALID,41,VALID,0,
2001-07-28, 02:13:00,VALID,917.18,VALID,0,VALID,95.6844,VALID,0,VALID,18.8406,VALID,41,VALID,0,
2001-07-28, 02:14:00,VALID,917.176,VALID,0,VALID,95.823,VALID,0,VALID,18.8083,VALID,41,VALID,0,
2001-07-28, 02:15:00,VALID,917.176,VALID,0,VALID,95.9489,VALID,-0.0169808,VALID,18.7762,VALID,39,VALID,0,
2001-07-28, 02:16:00,VALID,917.169,VALID,0,VALID,96.1066,VALID,0,VALID,18.7501,VALID,43,VALID,0,
2001-07-28, 02:17:00,VALID,917.168,VALID,0,VALID,96.2706,VALID,0,VALID,18.7372,VALID,57,VALID,0,
2001-07-28, 02:18:00,VALID,917.184,VALID,0,VALID,95.9349,VALID,0,VALID,18.6826,VALID,133,VALID,0,
2001-07-28, 02:19:00,VALID,917.184,VALID,0,VALID,95.9476,VALID,0,VALID,18.6309,VALID,160,VALID,0,
2001-07-28, 02:20:00,VALID,917.2,VALID,0,VALID,96.1028,VALID,0,VALID,18.5825,VALID,161,VALID,0,
2001-07-28, 02:21:00,VALID,917.208,VALID,0,VALID,96.1244,VALID,-0.0509425,VALID,18.5437,VALID,161,VALID,0,
2001-07-28, 02:22:00,VALID,917.199,VALID,0,VALID,96.2007,VALID,-0.0169808,VALID,18.505,VALID,163,VALID,0,
2001-07-28, 02:23:00,VALID,917.199,VALID,0,VALID,96.2757,VALID,0,VALID,18.4724,VALID,162,VALID,0,
2001-07-28, 02:24:00,VALID,917.183,VALID,0,VALID,96.4563,VALID,-0.0169808,VALID,18.4434,VALID,152,VALID,0,
2001-07-28, 02:25:00,VALID,917.174,VALID,0,VALID,96.7691,VALID,0,VALID,18.4567,VALID,152,VALID,0,
2001-07-28, 02:26:00,VALID,917.183,VALID,0,VALID,97.1035,VALID,0,VALID,18.4888,VALID,152,VALID,0,
2001-07-28, 02:27:00,VALID,917.183,VALID,0,VALID,96.6928,VALID,0,VALID,18.4205,VALID,152,VALID,0,
2001-07-28, 02:28:00,VALID,917.176,VALID,0,VALID,96.956,VALID,0.0339617,VALID,18.4134,VALID,152,VALID,0,
2001-07-28, 02:29:00,VALID,917.168,VALID,0,VALID,96.5746,VALID,0.0339617,VALID,18.4007,VALID,152,VALID,0,
2001-07-28, 02:30:00,VALID,917.156,VALID,0,VALID,96.0036,VALID,0.0169808,VALID,18.2678,VALID,79,VALID,0,
2001-07-28, 02:31:00,VALID,917.154,VALID,0,VALID,96.3507,VALID,0.0679233,VALID,18.2229,VALID,62,VALID,0,
2001-07-28, 02:32:00,VALID,917.155,VALID,0,VALID,96.8314,VALID,0.0509425,VALID,18.2226,VALID,62,VALID,0,
2001-07-28, 02:33:00,VALID,917.154,VALID,0,VALID,97.2765,VALID,0.0849042,VALID,18.2651,VALID,57,VALID,0,
2001-07-28, 02:34:00,VALID,917.154,VALID,0,VALID,97.2396,VALID,0.0339617,VALID,18.2683,VALID,41,VALID,0,
2001-07-28, 02:35:00,VALID,917.139,VALID,0,VALID,97.1697,VALID,0.0339617,VALID,18.2524,VALID,41,VALID,0,
2001-07-28, 02:36:00,VALID,917.138,VALID,0,VALID,97.2002,VALID,0.0509425,VALID,18.2455,VALID,41,VALID,0,
2001-07-28, 02:37:00,VALID,917.138,VALID,0,VALID,97.2968,VALID,0.0339617,VALID,18.2681,VALID,321,VALID,0,
2001-07-28, 02:38:00,VALID,917.115,VALID,0,VALID,97.63,VALID,0.0679233,VALID,18.32,VALID,326,VALID,0,
2001-07-28, 02:39:00,VALID,917.076,VALID,0,VALID,97.1099,VALID,0.0169808,VALID,18.3041,VALID,50,VALID,0,
2001-07-28, 02:40:00,VALID,917.06,VALID,0,VALID,96.8136,VALID,0.0849042,VALID,18.2199,VALID,353,VALID,0.0966518,
2001-07-28, 02:41:00,VALID,917.081,VALID,0,VALID,97.0972,VALID,0.0679233,VALID,18.2196,VALID,239,VALID,0.832981,
2001-07-28, 02:42:00,VALID,917.082,VALID,0,VALID,97.9835,VALID,0.0509425,VALID,18.3622,VALID,206,VALID,0.362542,
2001-07-28, 02:43:00,VALID,917.084,VALID,0,VALID,98.1145,VALID,0.0169808,VALID,18.3947,VALID,192,VALID,0.0446135,
2001-07-28, 02:44:00,VALID,917.07,VALID,0,VALID,98.3281,VALID,-0.0339617,VALID,18.4535,VALID,185,VALID,0.0232205,
2001-07-28, 02:45:00,VALID,917.064,VALID,0,VALID,98.173,VALID,-0.0509425,VALID,18.46,VALID,125,VALID,0.378495,
2001-07-28, 02:46:00,VALID,917.056,VALID,0,VALID,97.9568,VALID,-0.0339617,VALID,18.421,VALID,96,VALID,0.528716,
2001-07-28, 02:47:00,VALID,917.04,VALID,0,VALID,98.4362,VALID,-0.0169808,VALID,18.4508,VALID,123,VALID,0.548943,
2001-07-28, 02:48:00,VALID,917.018,VALID,0,VALID,98.5125,VALID,-0.0339617,VALID,18.505,VALID,123,VALID,0.0805921,
2001-07-28, 02:49:00,VALID,917.033,VALID,0,VALID,97.8055,VALID,-0.0169808,VALID,18.3504,VALID,294,VALID,0,
2001-07-28, 02:50:00,VALID,917.04,VALID,0,VALID,97.6491,VALID,-0.0509425,VALID,18.2598,VALID,315,VALID,0,
2001-07-28, 02:51:00,VALID,917.041,VALID,0,VALID,97.9136,VALID,-0.0509425,VALID,18.2951,VALID,335,VALID,0,
2001-07-28, 02:52:00,VALID,917.023,VALID,0,VALID,97.8805,VALID,-0.0679233,VALID,18.2921,VALID,34,VALID,0,
2001-07-28, 02:53:00,VALID,917.012,VALID,0,VALID,97.8156,VALID,-0.0339617,VALID,18.2697,VALID,58,VALID,0,
2001-07-28, 02:54:00,VALID,916.999,VALID,0,VALID,97.8474,VALID,-0.0509425,VALID,18.2768,VALID,57,VALID,0,
2001-07-28, 02:55:00,VALID,917.012,VALID,0,VALID,98.2505,VALID,-0.0849042,VALID,18.3285,VALID,60,VALID,0,
2001-07-28, 02:56:00,VALID,917.005,VALID,0,VALID,98.3739,VALID,-0.0509425,VALID,18.4023,VALID,83,VALID,0.171453,
2001-07-28, 02:57:00,VALID,916.984,VALID,0,VALID,97.897,VALID,-0.0339617,VALID,18.3795,VALID,81,VALID,0.62859,
2001-07-28, 02:58:00,VALID,916.978,VALID,0,VALID,97.4545,VALID,-0.0339617,VALID,18.2856,VALID,76,VALID,0.631168,
2001-07-28, 02:59:00,VALID,916.967,VALID,0,VALID,97.6427,VALID,-0.0509425,VALID,18.2602,VALID,70,VALID,0.577691,
2001-07-28, 03:00:00,VALID,916.95,VALID,0,VALID,97.2447,VALID,-0.0849042,VALID,18.2026,VALID,62,VALID,0.593133,
2001-07-28, 03:01:00,VALID,916.945,VALID,0,VALID,97.279,VALID,-0.0679233,VALID,18.15,VALID,70,VALID,0.722128,
2001-07-28, 03:02:00,VALID,916.95,VALID,0,VALID,97.2549,VALID,-0.0509425,VALID,18.1604,VALID,70,VALID,0.514017,
2001-07-28, 03:03:00,VALID,916.943,VALID,0,VALID,97.438,VALID,-0.0339617,VALID,18.1281,VALID,96,VALID,0.770148,
2001-07-28, 03:04:00,VALID,916.933,VALID,0,VALID,97.4748,VALID,-0.0679233,VALID,18.1246,VALID,121,VALID,0.874155,
2001-07-28, 03:05:00,VALID,916.924,VALID,0,VALID,97.3935,VALID,-0.0509425,VALID,18.073,VALID,104,VALID,0.290707,
2001-07-28, 03:06:00,VALID,916.914,VALID,0,VALID,96.9675,VALID,-0.0339617,VALID,17.9961,VALID,90,VALID,0.375633,
2001-07-28, 03:07:00,VALID,916.901,VALID,0,VALID,96.9853,VALID,-0.0169808,VALID,17.8986,VALID,132,VALID,0.567634,
2001-07-28, 03:08:00,VALID,916.886,VALID,0,VALID,97.5321,VALID,-0.0849042,VALID,17.8887,VALID,147,VALID,0.79387,
2001-07-28, 03:09:00,VALID,916.859,VALID,0,VALID,97.7927,VALID,-0.0169808,VALID,17.9117,VALID,147,VALID,0.711411,
2001-07-28, 03:10:00,VALID,916.836,VALID,0,VALID,97.9136,VALID,-0.0509425,VALID,17.9147,VALID,148,VALID,0.730357,
2001-07-28, 03:11:00,VALID,916.82,VALID,0,VALID,97.9898,VALID,-0.0679233,VALID,17.9018,VALID,141,VALID,0.133235,
2001-07-28, 03:12:00,VALID,916.805,VALID,0,VALID,97.911,VALID,-0.0169808,VALID,17.8568,VALID,157,VALID,0.333615,
2001-07-28, 03:13:00,VALID,916.782,VALID,0,VALID,97.8729,VALID,-0.0509425,VALID,17.7888,VALID,162,VALID,0.347451,
2001-07-28, 03:14:00,VALID,916.768,VALID,0,VALID,97.953,VALID,0,VALID,17.7471,VALID,158,VALID,0,
2001-07-28, 03:15:00,VALID,916.756,VALID,0,VALID,98.056,VALID,-0.0169808,VALID,17.7176,VALID,155,VALID,0,
2001-07-28, 03:16:00,VALID,916.754,VALID,0,VALID,98.1463,VALID,0,VALID,17.7016,VALID,155,VALID,0,
2001-07-28, 03:17:00,VALID,916.739,VALID,0,VALID,98.173,VALID,0,VALID,17.6855,VALID,129,VALID,0,
2001-07-28, 03:18:00,VALID,916.711,VALID,0,VALID,98.0801,VALID,0,VALID,17.6306,VALID,95,VALID,0,
2001-07-28, 03:19:00,VALID,916.687,VALID,0,VALID,98.351,VALID,0.0169808,VALID,17.6112,VALID,91,VALID,0,
2001-07-28, 03:20:00,VALID,916.685,VALID,0,VALID,98.4883,VALID,0.0169808,VALID,17.6472,VALID,93,VALID,0.535773,
2001-07-28, 03:21:00,VALID,916.686,VALID,0,VALID,98.4184,VALID,0,VALID,17.6341,VALID,115,VALID,0.582981,
2001-07-28, 03:22:00,VALID,916.689,VALID,0,VALID,98.5926,VALID,0.0169808,VALID,17.6143,VALID,137,VALID,0.616964,
2001-07-28, 03:23:00,VALID,916.686,VALID,0,VALID,98.6206,VALID,0,VALID,17.6313,VALID,145,VALID,0.664463,
2001-07-28, 03:24:00,VALID,916.679,VALID,0,VALID,98.6053,VALID,0.0169808,VALID,17.6181,VALID,144,VALID,0.768703,
2001-07-28, 03:25:00,VALID,916.672,VALID,0,VALID,98.6193,VALID,0,VALID,17.5921,VALID,149,VALID,0.766518,
2001-07-28, 03:26:00,VALID,916.657,VALID,0,VALID,98.6346,VALID,0,VALID,17.5886,VALID,143,VALID,0.622255,
2001-07-28, 03:27:00,VALID,916.637,VALID,0,VALID,98.688,VALID,0.0169808,VALID,17.5691,VALID,121,VALID,0.399071,
2001-07-28, 03:28:00,VALID,916.625,VALID,0,VALID,98.5748,VALID,0.0169808,VALID,17.5568,VALID,120,VALID,0.170847,
2001-07-28, 03:29:00,VALID,916.625,VALID,0,VALID,98.5227,VALID,0.0169808,VALID,17.4853,VALID,118,VALID,0.690538,
2001-07-28, 03:30:00,VALID,916.619,VALID,0,VALID,98.7541,VALID,0.0169808,VALID,17.4925,VALID,121,VALID,0.983347,
2001-07-28, 03:31:00,VALID,916.634,VALID,0,VALID,98.9601,VALID,0,VALID,17.5695,VALID,118,VALID,0.985853,
2001-07-28, 03:32:00,VALID,916.641,VALID,0,VALID,98.9893,VALID,0.0169808,VALID,17.6242,VALID,110,VALID,1.08157,
2001-07-28, 03:33:00,VALID,916.636,VALID,0,VALID,99.1419,VALID,0,VALID,17.7113,VALID,112,VALID,1.38302,
2001-07-28, 03:34:00,VALID,916.646,VALID,0,VALID,99.1902,VALID,0,VALID,17.8243,VALID,112,VALID,1.43032,
2001-07-28, 03:35:00,VALID,916.647,VALID,0,VALID,99.1394,VALID,0.0509425,VALID,17.8698,VALID,109,VALID,1.15111,
2001-07-28, 03:36:00,VALID,916.652,VALID,0,VALID,99.1139,VALID,0,VALID,17.8924,VALID,106,VALID,1.17103,
2001-07-28, 03:37:00,VALID,916.652,VALID,0,VALID,99.1114,VALID,0.0169808,VALID,17.8988,VALID,105,VALID,1.07924,
2001-07-28, 03:38:00,VALID,916.652,VALID,0,VALID,99.1025,VALID,0.0169808,VALID,17.9279,VALID,103,VALID,0.946514,
2001-07-28, 03:39:00,VALID,916.649,VALID,0,VALID,99.0198,VALID,0,VALID,17.9087,VALID,105,VALID,0.783617,
2001-07-28, 03:40:00,VALID,916.634,VALID,0,VALID,98.9893,VALID,0,VALID,17.8958,VALID,121,VALID,0.803348,
2001-07-28, 03:41:00,VALID,916.624,VALID,0,VALID,99.0097,VALID,0,VALID,17.8797,VALID,124,VALID,0.914907,